Skip Page Navigation
NASA JPL Caltech
NASA Logo - Jet Propulsion Laboratory + View the NASA Portal
+ Center for Near-Earth Object Studies
JPL Home Earth Solar System Stars & Galaxies Technology
JPL Solar System Dynamics
BODIES ORBITS EPHEMERIDES TOOLS PHYSICAL DATA DISCOVERY FAQ SITE MAP
JPL Small-Body Database Browser
Search: [ help ]  
134285 (2006 CU43)
Classification: Main-belt Asteroid          SPK-ID: 2134285
Ephemeris | Orbit Diagram | Orbital Elements | Mission Design | Physical Parameters | Discovery Circumstances | Close-Approach Data ]

[ show orbit diagram ]
Orbital Elements at Epoch 2459200.5 (2020-Dec-17.0) TDB
Reference: JPL 20 (heliocentric ecliptic J2000)
 Element Value Uncertainty (1-sigma)   Units 
e .08067824252185461 3.5279e-08  
a 2.242927144245489 1.2043e-08 au
q 2.0619717241432 7.6717e-08 au
i 6.514995491047388 4.3073e-06 deg
node 132.3906536614905 3.2281e-05 deg
peri 336.5948706060918 4.3557e-05 deg
M 197.6490685499931 3.1763e-05 deg
tp 2459753.816296002692
(2022-Jun-23.31629600)
0.0001106 TDB
period 1226.933931218665
3.36
9.8819e-06
2.706e-08
d
yr
n .2934143321331299 2.3632e-09 deg/d
Q 2.423882564347777 1.3015e-08 au
  Orbit Determination Parameters
   # obs. used (total)      387  
   data-arc span      7865 days (21.53 yr)  
   first obs. used      1999-01-10  
   last obs. used      2020-07-23  
   planetary ephem.      DE441  
   SB-pert. ephem.      SB441-N16  
   condition code      0  
   norm. resid. RMS      .59227  
   source      ORB  
   producer      Otto Matic  
   solution date      2021-Apr-13 18:07:43  

Additional Information
 Earth MOID = 1.08012 au 
 Jupiter MOID = 2.64131 au 
 T_jup = 3.620 
[ show covariance matrix ]

Ephemeris | Orbit Diagram | Orbital Elements | Mission Design | Physical Parameters | Discovery Circumstances | Close-Approach Data ]

Physical Parameter Table
Parameter Symbol Value Units Sigma Reference Notes
absolute magnitude H 16.82   n/a E2021B55  

134285 (2006 CU43)          Discovered 2006-Feb-02 by Mt. Lemmon Survey at Mt. Lemmon
Reference: 20060711/Numbers.arcLast Updated: 2006-07-17

[ show close-approach data ]
Alternate Designations
 2006 CU43 = 1999 AO16 
Ephemeris | Orbit Diagram | Orbital Elements | Mission Design | Physical Parameters | Discovery Circumstances | Close-Approach Data ]
ABOUT SSD CREDITS/AWARDS PRIVACY/COPYRIGHT GLOSSARY LINKS
FirstGov 2021-Apr-19 12:13 UT
(server date/time)  
NASA Home Page
Site Manager:   Ryan S. Park
Webmaster  Alan B. Chamberlin